Regional Weather Roundup
Issued by NWS Little Rock, AR

Home | Current Version | Previous Version | Graphics & Text | Print | Product List | Glossary On
Versions: 1 2 3 4 5 6 7 8 9 10 11 12 13 14 15 16 17 18 19 20 21 22 23 24 25 26 27 28 29 30 31 32 33 34 35 36 37 38 39 40 41 42 43 44 45 46 47 48 49 50
000
ASUS44 KLZK 301005
RWRLZK

WEATHER ROUNDUP FOR ARKANSAS
NATIONAL WEATHER SERVICE LITTLE ROCK AR
500 AM CDT SUN AUG 30 2015

NOTE: "FAIR" INDICATES FEW OR NO CLOUDS BELOW 12,000 FEET WITH NO
SIGNIFICANT WEATHER AND/OR OBSTRUCTIONS TO VISIBILITY.

ARZ001-003-010-029-301100-
NORTHWEST ARKANSAS

CITY           SKY/WX    TMP DP  RH WIND       PRES   REMARKS
FAYETTEVILLE   CLOUDY    71  70  96 CALM      29.99F FOG
FORT SMITH     CLEAR     72  68  87 E7        29.96S
BENTONVILLE    PTCLDY    72  66  83 CALM      30.00S
ROGERS         CLOUDY    72  69  90 S5        30.00S
SILOAM SPGS    CLOUDY    72  64  78 CALM      29.98S
HIGHFILL       CLOUDY    72  70  93 SW5       29.99S
$$

ARZ004-005-016-301100-
NORTH CENTRAL ARKANSAS

CITY           SKY/WX    TMP DP  RH WIND       PRES   REMARKS
BATESVILLE     CLEAR     66  64  94 CALM      30.00S
FLIPPIN        CLOUDY    68  64  88 N3        30.00R
MTN HOME       CLOUDY    68  67  96 CALM      30.01R FOG
$$

ARZ040-041-301100-
WEST CENTRAL ARKANSAS

CITY           SKY/WX    TMP DP  RH WIND       PRES   REMARKS
MENA           MOCLDY    72  70  94 CALM      30.00F
MOUNT IDA      PTCLDY    67  66  97 CALM      29.98S FOG
$$

ARZ009-017-025-026-028-301100-
NORTHEAST ARKANSAS

CITY           SKY/WX    TMP DP  RH WIND       PRES   REMARKS
JONESBORO      MOCLDY    70  68  93 E7        30.01R
NEWPORT        PTCLDY    72  71  96 E3        30.00S
WALNUT RIDGE   PTCLDY    72  66  83 E5        30.00S
BLYTHEVILLE    CLOUDY    74  73  97 CALM      30.03R
$$

ARZ022-023-033-042-044-301100-
CENTRAL ARKANSAS

CITY           SKY/WX    TMP DP  RH WIND       PRES   REMARKS
LITTLE ROCK    PTCLDY    70  67  90 CALM      29.98S
N LITTLE ROCK    N/A     72  66  82 CALM      29.98S
JACKSONVILLE   CLEAR     67  66  96 CALM      29.98S
SEARCY         CLEAR     67  67 100 CALM      30.00S FOG
HOT SPRINGS    CLEAR     69  67  93 CALM      30.00R FOG
RUSSELLVILLE   CLOUDY    69  68  96 CALM      29.98S FOG
$$

ARZ036-301100-
EAST ARKANSAS

CITY           SKY/WX    TMP DP  RH WIND       PRES   REMARKS
WEST MEMPHIS   CLOUDY    74  72  93 SE6       30.00R
$$

ARZ050-053-066-070-073-301100-
SOUTHWEST ARKANSAS

CITY           SKY/WX    TMP DP  RH WIND       PRES   REMARKS
ARKADELPHIA    FAIR      68  68 100 CALM      29.99S
CAMDEN         CLEAR     68  64  88 CALM      29.98R FOG
TEXARKANA      CLEAR     74  66  76 S5        29.98S
EL DORADO      CLEAR     68  66  93 S3        29.99R
DE QUEEN       FOG       68  68 100 NE3       29.96S VSB 1/4
$$

ARZ056-057-069-301100-
SOUTHEAST ARKANSAS

CITY           SKY/WX    TMP DP  RH WIND       PRES   REMARKS
PINE BLUFF     CLEAR     68  67  96 CALM      29.98S
STUTTGART      PTCLDY    72  64  78 NE5       29.98S
MONTICELLO     PTCLDY    72  68  87 CALM      29.98S

$$




USA.gov is the U.S. government's official web portal to all federal, state and local government web resources and services.